Probability
0 0 0 0 3 3 3 3 0 3 6 10 10 3 6 3 3 3 6 29 58 61 61 52 61 55 45 35 39 32 32 29 26 26 19 26 23 13 16 16 16 23 16
0 0 0 0 3 3 3 3 3 3 3 3 6 6 3 3 3 3 3 13 48 65 58 52 52 48 45 35 39 45 32 32 26 26 23 23 26 23 19 16 19 19 13
0 0 0 0 3 3 3 3 6 3 0 0 3 3 3 3 3 3 3 13 16 48 55 61 58 52 45 48 45 39 42 32 29 26 26 26 26 29 26 26 23 23 23
0 0 0 3 3 6 3 0 3 3 3 3 3 3 3 3 3 3 3 3 6 16 29 48 61 65 58 55 65 61 48 45 39 29 19 19 19 16 19 26 19 16 13
0 0 3 3 3 3 3 3 3 3 3 3 3 3 3 0 0 0 0 0 0 3 13 19 48 61 58 55 58 55 58 52 45 42 32 23 19 26 13 16 16 16 13
6 3 3 3 0 3 3 3 3 3 3 3 3 6 3 3 3 3 0 0 0 3 6 6 19 26 45 58 55 55 55 52 48 35 29 26 26 26 16 10 10 10 6
3 3 3 3 3 3 3 3 3 3 3 3 3 0 0 0 0 0 0 0 3 0 0 3 6 6 16 32 45 52 42 39 45 42 32 29 29 26 26 13 6 6 6
6 6 3 6 6 3 3 3 0 3 3 3 3 0 3 0 0 0 0 3 0 0 0 3 0 0 6 6 6 19 29 35 39 39 35 32 26 19 16 16 10 6 6
16 16 13 6 6 6 6 0 0 0 3 0 0 0 3 0 0 0 0 0 0 3 6 3 0 0 0 3 3 3 19 29 29 29 35 35 26 16 16 13 13 13 6
26 23 16 10 6 6 6 10 3 3 3 3 0 0 3 3 3 3 3 0 3 6 3 3 3 3 0 0 0 0 0 0 16 16 23 35 26 23 13 13 10 6 6
13 19 19 19 10 6 6 3 3 3 0 0 0 3 3 3 3 3 3 3 3 6 6 6 6 0 0 0 6 0 0 0 0 3 16 23 26 26 23 19 16 16 13
3 10 10 10 10 6 6 10 6 10 6 0 3 3 3 3 3 3 3 3 3 3 3 3 3 0 0 0 0 0 0 0 0 0 0 3 13 10 16 16 16 13 13
6 6 10 10 10 10 10 10 10 6 6 6 6 6 3 3 3 3 6 6 6 3 3 3 0 0 0 0 0 0 0 0 0 0 0 0 3 3 6 13 16 10 10
6 6 10 13 13 13 13 10 10 10 10 10 10 10 10 10 10 6 6 10 10 3 3 0 0 0 0 0 0 0 0 0 0 0 0 0 0 0 0 3 3 3 6
6 10 10 10 6 6 6 6 10 10 10 10 10 10 10 10 10 10 6 6 10 3 3 0 0 0 0 0 0 0 3 0 0 0 0 0 0 0 0 0 0 3 3
6 10 6 6 6 6 6 6 6 6 6 10 13 13 13 10 10 10 10 10 6 3 3 0 0 0 0 0 0 0 0 0 0 0 0 0 0 0 0 0 0 0 0
6 6 6 6 6 6 6 6 6 6 6 10 10 13 13 13 10 10 6 3 3 3 3 0 0 0 0 0 0 0 0 0 0 0 0 0 0 0 0 0 0 0 0
6 6 6 6 6 6 6 6 6 6 10 10 6 6 6 6 6 3 3 0 0 0 0 0 0 0 0 0 0 0 0 0 0 0 0 0 0 0 0 0 0 0 0
3 6 6 6 6 6 6 3 3 3 3 0 0 3 6 6 6 6 0 0 0 0 0 0 0 0 0 0 0 0 0 0 0 0 0 0 0 0 0 0 0 0 0
3 6 3 6 6 3 3 3 3 0 0 0 3 3 3 6 6 6 0 0 0 0 0 0 0 0 0 0 0 0 0 0 0 0 0 0 0 0 0 0 0 0 0
3 3 3 3 3 3 3 3 3 3 3 3 3 3 3 3 3 3 0 3 0 0 0 0 0 0 0 0 0 0 0 0 0 0 0 0 0 0 0 0 0 0 0
6 3 3 3 0 0 0 0 0 3 3 3 3 3 6 0 0 0 0 0 0 0 0 0 0 0 0 0 0 0 0 0 0 0 0 0 0 0 0 0 0 0 0
3 6 6 3 3 3 0 0 0 0 0 3 3 3 3 3 0 0 0 0 0 0 0 0 0 0 0 0 0 0 0 0 0 0 0 0 0 0 0 0 0 0 0
3 3 3 3 3 3 0 0 0 0 0 0 3 3 3 3 0 0 0 0 0 0 0 0 0 0 0 0 0 0 0 0 0 0 0 0 0 0 0 0 0 0 0
3 3 3 3 0 0 0 0 0 0 0 3 3 3 3 3 0 0 0 0 0 0 0 0 0 0 0 0 0 0 0 0 0 0 0 0 0 0 0 0 0 0 0
3 3 3 0 0 0 0 0 0 0 0 3 3 3 0 0 0 0 0 0 0 0 0 0 0 0 0 0 0 0 0 0 0 0 0 0 0 0 0 0 0 0 0
Height
5893 5894 5894 5895 5895 5895 5895 5896 5896 5896 5896 5896 5896 5897 5897 5897 5897 5897 5897 5898 5898 5898 5898 5898 5898 5898 5897 5897 5897 5897 5897 5896 5896 5896 5896 5895 5895 5895 5895 5895 5895 5894 5894
5894 5895 5895 5895 5895 5896 5896 5896 5896 5896 5897 5897 5897 5897 5897 5897 5897 5897 5898 5898 5898 5897 5897 5897 5897 5897 5896 5896 5896 5896 5896 5895 5895 5895 5895 5894 5894 5894 5893 5893 5893 5893 5892
5895 5896 5896 5896 5896 5896 5896 5896 5896 5897 5897 5897 5897 5897 5897 5897 5897 5897 5897 5897 5897 5896 5896 5896 5896 5895 5895 5895 5894 5894 5894 5894 5893 5893 5893 5893 5892 5892 5891 5891 5891 5890 5890
5897 5897 5897 5897 5896 5897 5896 5896 5896 5897 5897 5897 5897 5897 5896 5896 5896 5896 5896 5896 5896 5896 5895 5895 5895 5894 5893 5893 5893 5892 5892 5892 5891 5891 5891 5890 5890 5890 5889 5889 5888 5888 5887
5898 5897 5897 5897 5897 5897 5897 5896 5896 5896 5896 5896 5896 5896 5896 5895 5895 5895 5895 5894 5894 5894 5894 5893 5893 5893 5892 5891 5891 5890 5890 5889 5889 5889 5888 5888 5888 5887 5887 5886 5886 5885 5885
5898 5898 5898 5898 5897 5897 5897 5896 5896 5896 5896 5895 5895 5895 5894 5894 5894 5893 5893 5893 5892 5892 5892 5891 5891 5891 5890 5889 5889 5888 5887 5887 5886 5886 5886 5885 5885 5884 5884 5883 5883 5882 5881
5898 5898 5898 5898 5897 5897 5896 5895 5895 5895 5894 5894 5894 5893 5893 5892 5892 5892 5891 5891 5890 5890 5890 5889 5888 5888 5887 5887 5886 5885 5884 5884 5883 5883 5882 5882 5881 5881 5880 5880 5879 5879 5878
5898 5898 5897 5897 5897 5896 5895 5895 5894 5893 5893 5892 5892 5891 5891 5891 5890 5889 5889 5889 5888 5888 5887 5886 5886 5885 5884 5884 5883 5882 5881 5881 5880 5880 5879 5878 5877 5877 5876 5876 5875 5874 5874
5897 5897 5897 5896 5895 5895 5894 5893 5893 5892 5891 5890 5890 5890 5889 5888 5887 5887 5887 5886 5886 5885 5884 5883 5883 5882 5881 5880 5879 5879 5878 5877 5876 5876 5875 5875 5873 5873 5872 5871 5870 5870 5869
5897 5896 5895 5895 5894 5893 5893 5892 5891 5890 5889 5888 5888 5887 5887 5886 5885 5884 5884 5883 5882 5881 5881 5880 5879 5878 5877 5877 5876 5875 5874 5873 5873 5872 5871 5870 5869 5869 5868 5867 5866 5865 5864
5895 5895 5894 5893 5892 5892 5891 5890 5889 5888 5887 5886 5885 5885 5884 5883 5882 5882 5881 5880 5879 5878 5877 5876 5876 5875 5874 5873 5872 5871 5870 5869 5869 5868 5867 5866 5865 5864 5863 5862 5861 5860 5859
5894 5894 5893 5892 5891 5890 5889 5888 5887 5886 5885 5884 5883 5882 5881 5881 5880 5879 5878 5877 5876 5874 5873 5873 5872 5871 5870 5869 5868 5868 5867 5866 5865 5864 5862 5861 5860 5859 5858 5857 5856 5854 5853
5893 5892 5891 5890 5889 5888 5887 5886 5885 5884 5883 5882 5881 5880 5879 5878 5877 5876 5875 5874 5873 5871 5870 5869 5868 5867 5866 5865 5864 5863 5862 5861 5860 5859 5858 5856 5855 5854 5853 5851 5850 5849 5847
5892 5891 5890 5889 5887 5886 5885 5884 5883 5882 5881 5880 5879 5878 5877 5875 5874 5873 5872 5871 5870 5868 5867 5865 5864 5863 5862 5861 5860 5859 5858 5857 5856 5854 5853 5851 5850 5848 5847 5846 5844 5843 5842
5891 5890 5889 5887 5886 5885 5884 5882 5881 5880 5879 5878 5877 5876 5874 5873 5872 5871 5870 5869 5868 5866 5864 5863 5861 5859 5858 5857 5856 5855 5854 5852 5851 5849 5847 5846 5844 5843 5842 5840 5838 5837 5835
5890 5889 5887 5886 5885 5883 5882 5881 5880 5878 5877 5876 5875 5874 5872 5871 5870 5868 5867 5866 5865 5863 5861 5860 5858 5857 5854 5853 5851 5850 5848 5847 5845 5844 5842 5840 5839 5837 5835 5834 5832 5830 5828
5889 5887 5886 5885 5883 5882 5881 5879 5878 5876 5875 5874 5872 5871 5870 5869 5868 5866 5865 5863 5861 5860 5858 5857 5854 5853 5851 5849 5847 5845 5843 5842 5840 5838 5836 5834 5832 5830 5829 5827 5825 5823 5821
5887 5886 5884 5883 5882 5880 5879 5877 5876 5874 5873 5871 5870 5869 5867 5866 5865 5863 5862 5860 5858 5856 5855 5853 5851 5848 5846 5844 5842 5840 5838 5836 5834 5832 5829 5827 5825 5823 5821 5819 5817 5815 5813
5885 5884 5883 5881 5880 5878 5877 5875 5873 5872 5870 5869 5867 5866 5864 5863 5862 5860 5858 5857 5855 5853 5850 5848 5846 5844 5841 5839 5837 5835 5832 5830 5827 5825 5822 5820 5818 5816 5813 5811 5809 5807 5804
5884 5882 5881 5879 5877 5876 5874 5872 5871 5869 5867 5866 5864 5862 5861 5860 5858 5857 5855 5853 5851 5849 5846 5844 5842 5839 5837 5834 5832 5829 5827 5824 5821 5818 5816 5813 5810 5807 5805 5802 5800 5798 5795
5882 5880 5879 5877 5875 5873 5872 5870 5868 5866 5864 5863 5861 5859 5857 5856 5855 5853 5851 5849 5847 5845 5842 5840 5837 5835 5832 5829 5827 5824 5821 5818 5814 5812 5809 5806 5803 5800 5797 5794 5792 5789 5787
5880 5878 5876 5875 5873 5871 5869 5867 5865 5863 5861 5859 5857 5856 5854 5853 5851 5849 5847 5845 5843 5841 5838 5835 5833 5830 5827 5824 5821 5818 5815 5812 5809 5806 5802 5799 5795 5792 5789 5786 5783 5780 5778
5877 5875 5874 5872 5870 5868 5866 5864 5862 5860 5858 5856 5855 5853 5851 5849 5847 5845 5843 5841 5839 5836 5834 5831 5828 5825 5822 5819 5815 5812 5809 5806 5803 5799 5796 5792 5788 5785 5781 5778 5775 5772 5769
5875 5873 5871 5869 5867 5865 5863 5861 5859 5857 5855 5854 5852 5850 5848 5846 5843 5841 5839 5837 5834 5832 5829 5826 5824 5820 5817 5813 5810 5807 5803 5800 5796 5793 5789 5785 5781 5777 5774 5770 5767 5763 5760
5872 5870 5868 5866 5864 5862 5860 5858 5856 5854 5852 5850 5848 5846 5844 5842 5840 5837 5835 5833 5830 5827 5824 5821 5818 5815 5811 5808 5804 5801 5797 5793 5789 5786 5782 5778 5774 5770 5766 5762 5758 5754 5751
5869 5867 5865 5863 5860 5858 5856 5854 5853 5851 5849 5847 5845 5843 5841 5838 5836 5833 5831 5828 5825 5822 5819 5816 5813 5809 5805 5802 5798 5794 5791 5787 5783 5779 5774 5770 5766 5762 5758 5754 5750 5746 5742
Wind_Speed
7 7 7 6 6 5 5 4 3 3 3 3 2 1 1 1 0 0 0 0 0 1 2 2 2 2 3 3 3 4 5 5 5 5 6 6 6 6 6 7 7 7 8
6 6 6 5 5 4 3 3 2 3 2 2 2 0 1 1 1 1 2 2 2 3 3 3 4 4 4 5 5 6 6 6 7 7 7 7 8 8 8 8 9 9 9
5 5 4 4 4 3 3 2 1 1 1 1 1 1 2 2 3 3 3 4 4 5 5 6 6 6 6 7 7 7 7 8 8 8 8 9 9 9 9 10 10 10 11
4 4 3 3 3 3 2 1 1 2 2 2 3 3 3 4 4 4 5 6 6 6 7 7 8 8 8 8 8 8 8 9 9 9 9 10 10 10 10 10 11 12 12
4 3 2 3 3 2 2 2 2 3 3 4 4 5 5 6 6 7 7 8 7 8 8 8 9 9 9 9 10 10 10 10 10 10 10 10 11 11 12 12 13 13 13
2 2 3 3 3 3 3 3 3 4 4 5 6 7 7 8 8 9 8 9 9 10 10 10 10 10 11 12 12 12 13 12 12 12 12 12 13 14 14 14 14 15 15
1 2 2 3 3 4 5 5 6 6 7 7 8 8 9 9 9 9 9 10 11 11 11 11 12 12 13 13 14 14 14 14 14 14 15 15 15 16 16 16 16 16 16
2 3 3 3 4 5 6 7 7 7 8 9 9 10 9 9 10 10 10 11 11 12 13 13 13 14 14 14 14 15 15 16 16 16 17 16 17 16 16 16 17 18 18
3 4 5 6 6 7 7 7 7 8 9 9 10 10 11 12 12 12 12 13 13 13 13 14 14 15 16 15 15 15 15 16 16 16 17 17 17 17 17 18 18 19 19
4 6 7 7 8 8 8 9 9 9 10 10 10 10 11 11 12 13 14 14 14 14 15 15 15 16 15 15 15 16 16 15 16 16 17 17 18 18 18 18 19 19 20
6 7 8 8 8 9 9 10 10 10 10 10 10 11 11 10 11 12 14 15 15 15 15 15 16 16 16 16 16 16 16 17 17 17 18 18 19 19 19 19 20 20 20
7 8 9 9 9 10 10 10 10 10 11 11 11 11 11 11 12 12 13 14 15 16 15 16 16 16 16 17 17 17 17 18 18 18 19 20 21 21 21 21 22 22 22
8 8 9 9 9 10 10 11 11 11 11 11 12 12 12 12 13 12 12 12 14 15 16 16 16 17 17 17 17 17 18 19 19 19 20 21 21 22 22 23 23 23 24
8 8 8 8 9 9 9 9 10 10 11 11 12 12 12 12 12 12 12 13 13 13 14 15 16 16 17 17 17 18 18 19 19 20 21 22 22 22 23 24 24 24 25
8 8 8 8 9 9 8 9 9 10 11 11 11 11 12 12 13 12 13 13 13 13 13 14 15 16 17 17 18 19 19 20 21 21 22 22 23 23 24 25 25 26 26
8 8 7 8 8 8 8 9 10 10 11 11 12 12 12 12 12 12 12 13 14 14 15 15 16 17 18 19 20 20 20 21 21 22 22 23 24 25 26 26 27 28 28
9 8 8 8 8 9 9 10 10 11 11 11 12 12 12 13 13 13 14 14 15 16 17 17 18 19 20 20 20 21 22 23 23 24 25 25 26 27 28 28 28 29 30
10 9 9 9 9 10 10 11 11 12 12 13 13 13 14 14 14 14 15 16 16 17 18 18 19 20 20 21 21 22 23 23 25 26 26 27 28 29 29 29 30 30 31
11 10 10 10 10 11 11 11 12 13 14 14 14 14 14 14 14 15 16 17 17 18 18 19 20 20 20 21 21 23 24 25 26 26 27 28 29 30 30 30 31 31 32
11 11 11 11 11 11 12 12 13 14 14 15 15 15 14 14 15 16 17 17 18 18 18 20 20 21 20 21 22 23 24 25 25 25 27 28 29 30 29 30 31 31 32
11 11 12 12 12 12 13 13 13 14 14 15 15 14 15 16 16 17 18 18 19 19 20 20 21 21 21 22 23 24 24 24 25 26 27 28 28 29 29 30 30 31 32
12 13 13 13 13 13 13 13 14 14 14 14 14 15 16 16 17 18 18 19 19 20 20 21 21 21 22 23 23 24 24 25 26 26 27 28 29 30 30 30 31 32 33
14 14 14 14 13 14 14 14 14 14 14 14 15 15 16 16 17 18 18 19 20 20 20 21 22 22 23 24 24 24 25 26 26 27 27 29 30 30 31 31 32 33 33
15 14 14 14 14 15 15 14 14 14 14 14 15 16 16 17 18 19 19 19 19 20 21 21 22 23 24 24 25 26 27 27 28 29 29 30 31 31 31 32 33 33 33
15 15 15 16 16 16 16 15 14 14 15 15 16 17 17 18 18 19 19 19 20 21 22 22 23 24 25 25 26 27 28 29 29 30 30 31 32 32 33 33 33 33 34
16 16 17 17 17 17 16 16 16 16 16 16 17 17 17 18 18 19 19 20 21 22 22 23 24 25 26 27 28 28 29 29 30 30 31 32 32 33 33 33 34 34 34
Wind_Direction
91 95 95 91 90 95 99 98 94 89 75 63 90 123 108 48 79 80 96 121 242 253 268 278 282 288 284 281 285 290 295 295 287 282 282 278 275 278 280 282 284 291 291
88 88 92 93 93 95 97 94 80 63 57 50 44 70 295 292 286 284 288 286 286 279 276 279 283 285 285 282 282 285 290 292 287 284 281 279 278 277 277 280 282 288 289
89 88 83 81 85 84 89 96 65 42 15 1 356 335 306 297 281 278 285 286 288 286 284 279 280 284 284 284 285 284 286 289 288 286 282 280 281 278 278 279 281 283 286
78 77 66 60 66 60 49 23 321 311 305 306 312 310 299 289 287 284 287 287 288 287 287 283 282 282 281 284 289 287 287 290 287 285 283 281 280 280 283 283 285 287 289
66 68 56 43 36 29 15 356 324 303 293 291 293 294 292 290 289 287 288 287 288 290 291 291 288 285 285 287 286 287 287 286 285 286 286 281 280 280 282 284 285 286 289
48 28 28 17 6 359 350 339 328 308 296 293 290 291 292 291 289 287 288 285 284 287 290 289 287 288 287 287 287 286 284 282 281 282 283 283 283 282 280 282 283 285 285
6 6 5 354 343 337 333 324 315 310 302 295 293 294 292 289 286 284 286 286 283 284 287 287 286 287 289 289 290 288 285 282 282 282 282 280 281 283 281 280 283 285 285
302 311 325 324 322 321 317 315 314 312 305 299 293 289 290 287 286 284 286 291 291 288 285 286 286 286 287 288 288 286 284 284 282 282 283 281 280 282 282 282 285 285 284
306 302 303 307 308 309 307 308 310 312 310 306 299 290 287 286 285 287 287 287 287 287 286 286 287 288 286 286 288 287 286 284 281 281 281 282 283 283 282 283 285 283 282
305 305 303 301 300 301 304 305 303 306 305 305 302 296 291 291 290 288 286 286 286 285 285 286 289 292 287 285 286 288 284 284 282 281 283 282 282 282 283 284 286 285 283
311 307 305 303 299 298 301 304 305 303 300 301 300 297 297 295 293 290 287 288 290 289 287 287 290 290 287 286 286 286 285 284 284 282 283 283 282 282 283 283 283 283 284
312 307 305 302 298 299 301 302 302 301 298 297 298 296 295 295 296 295 292 291 292 291 289 287 286 287 287 287 286 284 286 286 285 285 286 285 283 282 284 284 283 282 283
314 310 308 308 307 306 303 301 300 299 299 299 300 299 298 299 297 294 293 294 294 293 289 288 287 286 287 289 287 285 287 286 286 286 287 287 286 282 283 284 284 284 284
316 313 312 315 314 309 306 304 302 302 303 303 302 301 300 299 300 294 291 292 297 299 294 292 292 292 290 288 287 287 289 287 286 287 287 287 287 284 284 285 285 286 287
314 313 312 317 318 315 312 309 306 306 306 307 306 304 302 302 301 300 300 300 301 303 303 299 296 297 296 291 291 290 291 290 290 289 289 288 287 286 285 286 286 287 288
311 310 311 316 320 320 318 313 309 307 308 308 306 304 304 308 308 307 307 305 304 304 303 302 302 303 301 298 295 295 294 295 294 292 289 289 289 288 287 287 287 287 288
315 311 310 314 316 316 314 313 312 310 308 307 305 304 304 306 308 305 306 306 305 303 301 300 301 301 300 299 297 297 296 294 293 291 290 290 290 290 289 289 289 288 288
314 313 313 311 311 313 313 312 312 310 307 306 307 307 307 305 306 306 307 306 304 302 301 301 302 301 300 298 299 298 298 297 294 292 291 291 291 290 289 288 289 289 288
315 314 312 308 308 309 311 311 310 309 308 306 306 307 305 303 304 306 306 305 305 305 304 304 305 304 302 300 300 300 300 297 296 295 293 293 291 290 289 289 288 288 288
316 314 312 309 309 308 307 308 306 307 307 305 305 304 303 302 303 304 305 305 305 305 304 305 307 307 304 303 304 303 302 300 299 297 296 295 294 294 292 291 289 289 290
315 313 312 311 311 311 310 308 306 307 307 306 305 304 304 304 305 304 303 303 304 305 305 306 307 307 306 306 307 308 306 304 304 302 300 300 298 296 295 293 292 292 292
313 311 310 309 310 310 311 309 307 306 307 307 307 308 307 306 306 305 303 303 304 305 306 308 309 309 309 309 308 308 308 307 306 306 305 304 303 300 296 295 294 294 293
314 312 312 311 311 310 310 309 307 306 308 311 312 312 311 311 309 308 307 307 307 308 308 308 310 311 310 310 309 308 308 308 309 308 307 306 305 303 302 300 300 298 296
316 317 311 311 313 312 310 310 310 309 310 312 313 313 313 313 312 311 310 309 308 308 309 308 310 311 311 311 311 310 309 309 308 307 307 307 306 305 304 302 301 300 300
317 317 313 310 309 309 312 311 309 309 310 310 313 313 313 312 312 312 311 310 309 309 311 311 312 314 314 312 312 311 311 311 310 309 308 307 307 307 306 305 304 303 302
312 313 312 309 308 309 310 311 308 310 311 311 312 312 312 313 313 313 313 312 311 312 313 315 316 316 315 314 314 313 313 312 311 310 310 309 308 308 307 306 305 304 304